OpenBCM V1.08-3-g9b42 (Linux)

Packet Radio Mailbox

OK0NBR

[Sao_Jose_dos_Campo]

 Login: GUEST





  
I0OJJ  > KEPS     20.12.25 22:37l 325 Lines 15462 Bytes #232 (0) @ AMSAT
BID : ORB25355.1
Read: GUEST
Subj: 2Line Orbital Elements 25355.AMSAT
Path: OK0NBR<SR1BSZ<EA2RCF<I0OJJ
Sent: 251221/0021z @:I0OJJ.ITA.EU [Rome] obcm1.08-11-2-gbfe9
From: I0OJJ @ I0OJJ.ITA.EU (Gustavo)
To:   KEPS @ AMSAT
X-Info: This message was generated automatically


QST de W1STR

AMSAT Orbital Elements for Amateur Satellites in TLE Format
From Orbital Analysis Office
New England Sci-Tech STEM Education Center
Natick MA December 21, 2025
To all radio amateurs


These element sets describe the orbits of various satellites 
in use by the amateur radio community. For details see:
www.amsat.org/keplerian-elements-formats/

A daily update of element sets is available at:
www.amsat.org/tle/daily-bulletin.txt
or without bulletin text:
www.amsat.org/tle/dailytle.txt


AO-07
1 07530U 74089B   25354.81932860 -.00000043  00000-0  20404-4 0  9991
2 07530 101.9963   1.1718 0012388 111.4060  60.8768 12.53694388338164
UO-11
1 14781U 84021B   25354.85119409  .00001146  00000-0  12400-3 0  9994
2 14781  97.7822 317.7540 0009061  59.5600 300.6512 14.90165762230560
AO-27
1 22825U 93061C   25354.41088819  .00000094  00000-0  53020-4 0  9993
2 22825  98.7136  56.6961 0007321 263.8924  96.1425 14.30879354681438
FO-29
1 24278U 96046B   25354.38852567 -.00000027  00000-0  87439-5 0  9997
2 24278  98.5458 222.4972 0349495 200.1071 158.6010 13.53262929448983
GO-32
1 25397U 98043D   25354.50401866  .00000040  00000-0  37448-4 0  9993
2 25397  98.9927 337.8955 0001814  45.0313 315.1012 14.24379082425893
ISS
1 25544U 98067A   25354.60225113  .00006881  00000-0  12984-3 0  9999
2 25544  51.6321 103.5427 0003193 277.2005  82.8620 15.49685042544071
NO-44
1 26931U 01043C   25354.69912529  .00000117  00000-0  74578-4 0  9995
2 26931  67.0515 345.8947 0007416 269.5347  90.4905 14.31858897264891
SO-50
1 27607U 02058C   25354.36114807  .00001456  00000-0  19159-3 0  9990
2 27607  64.5532 322.0423 0072562 295.1454  64.2136 14.82420220237949
CO-55
1 27844U 03031E   25354.80988735  .00000256  00000-0  13032-3 0  9994
2 27844  98.6761   0.6088 0009358 350.1244   9.9749 14.24185608166280
CO-57
1 27848U 03031J   25354.49916765  .00000215  00000-0  11361-3 0  9995
2 27848  98.6791   0.1579 0009608   9.1772 350.9580 14.23492587165953
RS-22
1 27939U 03042A   25354.87591225  .00001075  00000-0  17557-3 0  9998
2 27939  98.3359 169.2919 0012361 111.6028  24.8874 14.72991139189296
CO-58
1 28895U 05043F   25354.66714806  .00001175  00000-0  19558-3 0  9996
2 28895  98.2729 141.8793 0015136  54.6634 305.5985 14.71926340 75484
CO-65
1 32785U 08021C   25351.68477250  .00005656  00000-0  38073-3 0  9997
2 32785  97.8081 324.8433 0007829 290.5969  69.4418 15.07103756957832
CO-66
1 32791U 08021J   25354.44742117  .00012252  00000-0  48644-3 0  9993
2 32791  97.7443 339.8589 0002236 171.9570 188.1704 15.25493197959970
RS-30
1 32953U 08025A   25354.83890954  .00000052  00000-0  30010-3 0  9996
2 32953  82.5029 106.3861 0018716 343.0920  16.9534 12.43172126797537
SRMSAT
1 37841U 11058D   25354.52649405  .00000388  00000-0  66766-4 0  9996
2 37841  19.9724  60.8238 0011946  39.0399  89.0233 14.11513957732541
ZACUBE-1
1 39417U 13066B   25351.39749824  .00003280  00000-0  27002-3 0  9999
2 39417  97.8056 307.9496 0042001 132.1904 228.2897 14.99124350653477
Delfi-N3xt
1 39428U 13066N   25354.72275457  .00005352  00000-0  50197-3 0  9990
2 39428  97.8357 270.5755 0081095  79.5115 281.5228 14.91926068647987
GOMX-1
1 39430U 13066Q   25354.80507593  .00001946  00000-0  30295-3 0  9993
2 39430  97.6582 201.4259 0129183 290.5329  68.2054 14.68621591643725
LO-74
1 39440U 13066AA  25351.56788106  .00003439  00000-0  33426-3 0  9993
2 39440  97.8708 295.2332 0058016 269.4523  90.0047 14.92015584649893
AO-73
1 39444U 13066AE  25354.82734169  .00005148  00000-0  35024-3 0  9994
2 39444  97.8080 318.2055 0041190  89.5277 271.0669 15.06076236652780
DTUSAT-2
1 40030U 14033W   25351.70002679  .00007073  00000-0  41774-3 0  9998
2 40030  98.0754 333.4459 0009697 125.2587 234.9550 15.11812878625232
EO-80
1 40032U 14033Y   25354.42388264  .00006044  00000-0  35640-3 0  9991
2 40032  98.0645 335.7058 0009783  68.4432 291.7838 15.11936231625629
LILACSAT-2
1 40908U 15049K   25354.89768133  .00010385  00000-0  22234-3 0  9997
2 40908  97.4898  20.5318 0008120 166.7794 193.3669 15.44949851568161
IO-86
1 40931U 15052B   25151.18580175  .00001241  00000-0  78118-4 0  9996
2 40931   6.0006  24.0987 0012733 338.8432  21.1169 14.78805930523159
Horyu-4
1 41340U 16012D   25354.01968620  .00034530  00000-0  56476-3 0  9999
2 41340  30.9939 259.9732 0006825 304.4738  55.5266 15.51230224542683
Lapan A3
1 41603U 16040E   25354.86157910  .00002847  00000-0  95617-4 0  9994
2 41603  97.1424 352.1224 0008911 300.8487  59.1878 15.31611540527505
CAS-2T
1 41847U 16066G   25354.79852196  .00000766  00000-0  11824-3 0  9997
2 41847  98.4029  67.4605 0342736 310.6850  46.5017 14.44148202479041
TechnoSat
1 42829U 17042E   25354.71513476  .00002536  00000-0  18986-3 0  9993
2 42829  97.4054 154.5785 0017734 348.6257  11.4566 15.03470215459872
AO-91
1 43017U 17073E   25354.13825460  .00006760  00000-0  32051-3 0  9994
2 43017  97.4936 220.1669 0159393 224.8218 134.0047 15.09005085438353
S-Net D
1 43186U 18014G   25354.68296479  .00004395  00000-0  24267-3 0  9991
2 43186  97.5494 255.7074 0006901 280.5997  79.4457 15.14439426431720
S-Net B
1 43187U 18014H   25354.69114833  .00004111  00000-0  22737-3 0  9992
2 43187  97.5498 255.6958 0007508 274.7981  85.2393 15.14414656431729
S-Net A
1 43188U 18014J   25354.68263959  .00004437  00000-0  24489-3 0  9993
2 43188  97.5506 255.8653 0007399 275.1209  84.9178 15.14445920431725
S-Net C
1 43189U 18014K   25354.69413826  .00004056  00000-0  22432-3 0  9998
2 43189  97.5524 255.9234 0008801 266.0957  93.9269 15.14409842430273
Ten-Koh
1 43677U 18084G   25354.77337737  .00002005  00000-0  15850-3 0  9990
2 43677  98.0746 174.7192 0008922   3.0336 357.0940 15.01863610389379
PO-101
1 43678U 18084H   25354.86009303  .00002547  00000-0  21283-3 0  9994
2 43678  98.1022 178.6494 0007634  26.0902 334.0703 14.99477713389484
QO-100
1 43700U 18090A   25354.77039125  .00000168  00000-0  00000+0 0  9999
2 43700   0.0150  53.0799 0000993 239.6006 100.0598  1.00272400 25884
MinXSS-2
1 43758U 18099A   25354.18817808  .00017285  00000-0  51228-3 0  9998
2 43758  97.4793  61.6558 0009486 184.0807 176.0360 15.34873749386566
AO-95
1 43770U 18099N   25354.61671152  .00007303  00000-0  32215-3 0  9995
2 43770  97.4665  50.8412 0008216 253.7766 106.2567 15.22048137386011
SNUSat 2
1 43782U 18099AA  25354.63306848  .00006174  00000-0  30298-3 0  9991
2 43782  97.4340  45.9044 0010699 193.0040 167.0920 15.18401079385907
SnugLite
1 43784U 18099AC  25354.66755588  .00007300  00000-0  31848-3 0  9999
2 43784  97.4154  46.0139 0002985 170.9220 189.2070 15.22445353386116
ITASat 1
1 43786U 18099AE  25354.68387116  .00005063  00000-0  26525-3 0  9991
2 43786  97.4313  44.8299 0011928 252.6187 107.3741 15.16179030385838
EAGLET 1
1 43790U 18099AJ  25354.84947434  .00002601  00000-0  15857-3 0  9990
2 43790  97.4509  44.1785 0010177 237.8137 122.2107 15.11182725385380
ESEO
1 43792U 18099AL  25354.66815306  .00002092  00000-0  15744-3 0  9993
2 43792  97.4224  34.5276 0011581 218.6696 141.3702 15.03512343384972
JO-97
1 43803U 18099AX  25354.74490705  .00009905  00000-0  37537-3 0  9991
2 43803  97.4410  52.5360 0006503 172.1278 188.0064 15.27073345386335
Suomi 100
1 43804U 18099AY  25354.66909039  .00007925  00000-0  33459-3 0  9997
2 43804  97.4472  51.0685 0010882 183.0538 177.0634 15.23488669386193
ISAT
1 43879U 18111D   25354.78301987  .00025361  00000-0  58841-3 0  9991
2 43879  97.5920 274.8063 0004181 205.0936 155.0108 15.42372262383484
UWE-4
1 43880U 18111E   25354.71887497  .00016835  00000-0  50115-3 0  9993
2 43880  97.5868 271.4660 0007308 240.1125 119.9391 15.34759874383300
Sparrow
1 43881U 18111F   25354.75557669  .00029807  00000-0  63861-3 0  9998
2 43881  97.6106 278.5816 0001845 275.9289  84.1748 15.44720348383602
Prox-1
1 44339U 19036A   25354.03083144  .00009161  00000-0  10086-2 0  9998
2 44339  23.9949 226.4753 0006528 123.2474 236.8651 14.85360402346753
Taurus 1
1 44530U 19059C   25354.87563043  .00007326  00000-0  12496-2 0  9997
2 44530  98.6225 144.1781 0009147 149.7940 210.3792 14.69269768332438
TO-108
1 44881U 19093C   25354.84755678  .00001019  00000-0  12223-3 0  9990
2 44881  97.7759  66.2984 0012737 318.9221  41.1035 14.86121927324927
FloripaSat 1
1 44885U 19093G   25354.84172936  .00003300  00000-0  26071-3 0  9995
2 44885  97.8044  83.0741 0009639 308.5687  51.4672 15.01360302325860
RS-44
1 44909U 19096E   25354.36315210  .00000018  00000-0  30629-4 0  9994
2 44909  82.5215  98.5434 0217321 202.2263 156.9309 12.79746140279470
SALSAT
1 46495U 20068K   25353.48061531  .00006196  00000-0  24069-3 0  9996
2 46495  97.8779 341.1169 0009485 202.4725 157.6098 15.26432785287916
CSS (TIANHE-1)
1 48274U 21035A   25354.65636534  .00013883  00000-0  17373-3 0  9990
2 48274  41.4685 328.6338 0007728 100.5086 259.6623 15.59505050265261
TUBIN
1 48900U 21059X   25349.78845228  .07315651  27141-5  56139-3 0  9990
2 48900  97.6553 178.8839 0007270 265.1302  94.9166 16.40417761249824
CUTE
1 49263U 21088D   25354.73487191  .00018200  00000-0  23490-3 0  9994
2 49263  97.4346  77.9442 0004583 233.0156 127.0681 15.59028852234540
TeikyoSat 4
1 49396U 21102B   25354.82653450  .00001591  00000-0  10530-3 0  9997
2 49396  97.3887  26.1220 0012168 179.4156 180.7090 15.08676490225829
Z-Sat
1 49399U 21102E   25354.89328539  .00002294  00000-0  12065-3 0  9990
2 49399  97.3572  30.5911 0018131 144.2832 215.9618 15.16504461226405
KOSEN 1
1 49402U 21102H   25354.58395095  .00005347  00000-0  22468-3 0  9992
2 49402  97.3455  35.3109 0016164 115.6599 244.6310 15.23728518226797
